Time,TemperatureF,DewpointF,PressureIn,WindDirection,WindDirectionDegrees,WindSpeedMPH,WindSpeedGustMPH,Humidity,HourlyPrecipIn,Conditions,Clouds,dailyrainin,SoftwareType,DateUTC
2013-03-03 00:00:00,27.1,21.7,29.32,WSW,247,0.0,12.5,80,0.00,,,0.00,WUHU21623XXSP,2013-03-03 05:00:00,
2013-03-03 00:05:00,27.1,21.4,29.33,NW,315,0.9,0.9,79,0.00,,,0.00,WUHU21623XXSP,2013-03-03 05:05:00,
2013-03-03 00:11:00,27.1,21.4,29.32,WSW,247,2.5,2.5,79,0.00,,,0.00,WUHU21623XXSP,2013-03-03 05:11:00,
2013-03-03 00:16:00,27.1,21.4,29.32,WNW,292,0.0,2.5,79,0.00,,,0.00,WUHU21623XXSP,2013-03-03 05:16:00,
2013-03-03 00:21:00,27.1,21.4,29.32,WNW,292,2.9,3.6,79,0.00,,,0.00,WUHU21623XXSP,2013-03-03 05:21:00,
2013-03-03 00:26:00,27.1,21.1,29.32,NW,315,1.3,3.6,78,0.00,,,0.00,WUHU21623XXSP,2013-03-03 05:26:00,
2013-03-03 00:31:00,27.1,21.1,29.32,WSW,247,4.7,4.7,78,0.00,,,0.00,WUHU21623XXSP,2013-03-03 05:31:00,
2013-03-03 00:36:00,27.1,21.1,29.32,NW,315,0.0,4.7,78,0.00,,,0.00,WUHU21623XXSP,2013-03-03 05:36:00,
2013-03-03 00:41:00,27.0,20.9,29.33,NW,315,0.0,4.7,78,0.00,,,0.00,WUHU21623XXSP,2013-03-03 05:41:00,
2013-03-03 00:46:00,27.0,20.9,29.32,NNW,337,2.9,4.3,77,0.00,,,0.00,WUHU21623XXSP,2013-03-03 05:46:00,
2013-03-03 00:51:00,27.0,20.6,29.32,NW,315,0.0,4.3,77,0.00,,,0.00,WUHU21623XXSP,2013-03-03 05:51:00,
2013-03-03 00:56:00,26.8,20.5,29.33,NW,315,0.0,6.3,77,0.00,,,0.00,WUHU21623XXSP,2013-03-03 05:56:00,
2013-03-03 01:01:00,26.8,20.5,29.33,NNW,337,2.5,6.3,77,0.00,,,0.00,WUHU21623XXSP,2013-03-03 06:01:00,
2013-03-03 01:06:00,26.6,20.3,29.33,NW,315,2.0,2.5,77,0.00,,,0.00,WUHU21623XXSP,2013-03-03 06:06:00,
2013-03-03 01:11:00,26.6,20.3,29.32,North,0,1.8,2.0,77,0.00,,,0.00,WUHU21623XXSP,2013-03-03 06:11:00,
2013-03-03 01:16:00,26.4,20.1,29.32,NW,315,0.0,3.1,77,0.00,,,0.00,WUHU21623XXSP,2013-03-03 06:16:00,
2013-03-03 01:21:00,26.4,20.1,29.32,WNW,292,3.1,3.1,77,0.00,,,0.00,WUHU21623XXSP,2013-03-03 06:21:00,
2013-03-03 01:26:00,26.4,20.1,29.32,NW,315,3.6,6.0,77,0.00,,,0.00,WUHU21623XXSP,2013-03-03 06:26:00,
2013-03-03 01:31:00,26.4,20.1,29.32,NW,315,3.6,6.0,77,0.00,,,0.00,WUHU21623XXSP,2013-03-03 06:31:00,
2013-03-03 01:36:00,26.4,20.1,29.33,NW,315,0.0,6.3,77,0.00,,,0.00,WUHU21623XXSP,2013-03-03 06:36:00,
2013-03-03 01:41:00,26.2,20.1,29.33,WNW,292,0.0,6.3,78,0.00,,,0.00,WUHU21623XXSP,2013-03-03 06:41:00,
2013-03-03 01:46:00,26.2,20.2,29.33,North,0,8.7,8.7,78,0.00,,,0.00,WUHU21623XXSP,2013-03-03 06:46:00,
2013-03-03 01:51:00,26.2,20.2,29.32,WNW,292,0.0,8.7,78,0.00,,,0.00,WUHU21623XXSP,2013-03-03 06:51:00,
2013-03-03 01:56:00,26.2,20.4,29.32,NNW,337,4.0,8.7,78,0.00,,,0.00,WUHU21623XXSP,2013-03-03 06:56:00,
2013-03-03 02:01:00,26.4,20.4,29.32,NW,315,4.7,4.7,78,0.00,,,0.00,WUHU21623XXSP,2013-03-03 07:01:00,
2013-03-03 02:06:00,26.2,20.2,29.32,WNW,292,2.7,4.7,78,0.00,,,0.00,WUHU21623XXSP,2013-03-03 07:06:00,
2013-03-03 02:11:00,26.2,19.9,29.32,NNW,337,3.1,3.6,77,0.00,,,0.00,WUHU21623XXSP,2013-03-03 07:11:00,
2013-03-03 02:16:00,26.2,20.2,29.32,NNW,337,0.0,3.6,78,0.00,,,0.00,WUHU21623XXSP,2013-03-03 07:16:00,
2013-03-03 02:21:00,26.2,20.2,29.32,WNW,292,3.1,3.1,78,0.00,,,0.00,WUHU21623XXSP,2013-03-03 07:21:00,
2013-03-03 02:26:00,26.2,20.2,29.33,North,0,4.3,4.3,78,0.00,,,0.00,WUHU21623XXSP,2013-03-03 07:26:00,
2013-03-03 02:31:00,26.1,20.1,29.33,NW,315,3.1,4.3,78,0.00,,,0.00,WUHU21623XXSP,2013-03-03 07:31:00,
2013-03-03 02:36:00,25.9,20.2,29.32,NW,315,3.1,6.5,79,0.00,,,0.00,WUHU21623XXSP,2013-03-03 07:36:00,
2013-03-03 02:41:00,25.9,20.2,29.32,WNW,292,0.0,6.5,79,0.00,,,0.00,WUHU21623XXSP,2013-03-03 07:41:00,
2013-03-03 02:46:00,25.9,20.2,29.32,WNW,292,0.0,1.8,79,0.00,,,0.00,WUHU21623XXSP,2013-03-03 07:46:00,
2013-03-03 02:52:00,25.9,20.2,29.32,NW,315,0.0,2.2,79,0.00,,,0.00,WUHU21623XXSP,2013-03-03 07:52:00,
2013-03-03 02:57:00,25.7,20.1,29.32,NNW,337,2.9,2.9,79,0.00,,,0.00,WUHU21623XXSP,2013-03-03 07:57:00,
2013-03-03 03:02:00,25.7,20.4,29.32,West,270,1.6,2.9,80,0.00,,,0.00,WUHU21623XXSP,2013-03-03 08:02:00,
2013-03-03 03:07:00,25.5,20.2,29.31,NW,315,0.0,1.8,80,0.00,,,0.00,WUHU21623XXSP,2013-03-03 08:07:00,
2013-03-03 03:12:00,25.5,20.2,29.31,West,270,0.0,1.8,80,0.00,,,0.00,WUHU21623XXSP,2013-03-03 08:12:00,
2013-03-03 03:17:00,25.5,20.2,29.31,NW,315,0.0,2.2,80,0.00,,,0.00,WUHU21623XXSP,2013-03-03 08:17:00,
2013-03-03 03:22:00,25.5,20.2,29.31,West,270,0.0,2.2,80,0.00,,,0.00,WUHU21623XXSP,2013-03-03 08:22:00,
2013-03-03 03:27:00,25.5,20.2,29.31,WSW,247,0.0,0.0,80,0.00,,,0.00,WUHU21623XXSP,2013-03-03 08:27:00,
2013-03-03 03:32:00,25.3,20.3,29.31,NW,315,0.0,1.6,81,0.00,,,0.00,WUHU21623XXSP,2013-03-03 08:32:00,
2013-03-03 03:37:00,25.5,20.5,29.31,WNW,292,0.0,1.6,81,0.00,,,0.00,WUHU21623XXSP,2013-03-03 08:37:00,
2013-03-03 03:42:00,25.3,20.3,29.31,WNW,292,1.6,1.6,81,0.00,,,0.00,WUHU21623XXSP,2013-03-03 08:42:00,
2013-03-03 03:47:00,25.3,20.3,29.31,NW,315,0.0,2.2,81,0.00,,,0.00,WUHU21623XXSP,2013-03-03 08:47:00,
2013-03-03 03:52:00,25.2,20.2,29.31,NW,315,0.0,2.2,81,0.00,,,0.00,WUHU21623XXSP,2013-03-03 08:52:00,
2013-03-03 03:57:00,25.2,20.2,29.31,NNW,337,3.6,5.1,81,0.00,,,0.00,WUHU21623XXSP,2013-03-03 08:57:00,
2013-03-03 04:02:00,25.2,20.2,29.31,WNW,292,0.0,5.1,81,0.00,,,0.00,WUHU21623XXSP,2013-03-03 09:02:00,
2013-03-03 04:07:00,25.2,20.2,29.31,WNW,292,0.0,0.0,81,0.00,,,0.00,WUHU21623XXSP,2013-03-03 09:07:00,
2013-03-03 04:12:00,25.2,20.4,29.31,NNW,337,0.0,0.0,82,0.00,,,0.00,WUHU21623XXSP,2013-03-03 09:12:00,
2013-03-03 04:17:00,25.2,20.4,29.31,NW,315,2.5,3.4,82,0.00,,,0.00,WUHU21623XXSP,2013-03-03 09:17:00,
2013-03-03 04:22:00,25.2,20.4,29.30,WNW,292,0.0,3.4,82,0.00,,,0.00,WUHU21623XXSP,2013-03-03 09:22:00,
2013-03-03 04:27:00,25.2,20.4,29.30,NW,315,2.0,2.5,82,0.00,,,0.00,WUHU21623XXSP,2013-03-03 09:27:00,
2013-03-03 04:32:00,25.2,20.4,29.30,WNW,292,0.0,2.0,82,0.00,,,0.00,WUHU21623XXSP,2013-03-03 09:32:00,
2013-03-03 04:37:00,25.0,20.0,29.30,West,270,1.8,1.8,81,0.00,,,0.00,WUHU21623XXSP,2013-03-03 09:37:00,
2013-03-03 04:42:00,25.0,20.3,29.31,NW,315,1.8,5.1,82,0.00,,,0.00,WUHU21623XXSP,2013-03-03 09:42:00,
2013-03-03 04:47:00,25.0,20.3,29.30,NNW,337,0.0,5.1,82,0.00,,,0.00,WUHU21623XXSP,2013-03-03 09:47:00,
2013-03-03 04:52:00,25.0,20.3,29.31,NW,315,2.2,2.2,82,0.00,,,0.00,WUHU21623XXSP,2013-03-03 09:52:00,
2013-03-03 04:57:00,25.0,20.3,29.31,WNW,292,0.0,2.2,82,0.00,,,0.00,WUHU21623XXSP,2013-03-03 09:57:00,
2013-03-03 05:02:00,25.0,20.3,29.31,WNW,292,0.0,2.2,82,0.00,,,0.00,WUHU21623XXSP,2013-03-03 10:02:00,
2013-03-03 05:07:00,25.0,20.3,29.31,NW,315,0.0,0.0,82,0.00,,,0.00,WUHU21623XXSP,2013-03-03 10:07:00,
2013-03-03 05:13:00,25.0,20.3,29.31,NW,315,0.0,0.0,82,0.00,,,0.00,WUHU21623XXSP,2013-03-03 10:13:00,
2013-03-03 05:18:00,25.0,20.3,29.31,WNW,292,0.0,0.0,82,0.00,,,0.00,WUHU21623XXSP,2013-03-03 10:18:00,
2013-03-03 05:23:00,25.0,20.3,29.31,WNW,292,0.0,0.0,82,0.00,,,0.00,WUHU21623XXSP,2013-03-03 10:23:00,
2013-03-03 05:28:00,25.0,20.3,29.31,WNW,292,0.0,0.0,82,0.00,,,0.00,WUHU21623XXSP,2013-03-03 10:28:00,
2013-03-03 05:33:00,25.0,20.3,29.31,NW,315,0.0,0.0,82,0.00,,,0.00,WUHU21623XXSP,2013-03-03 10:33:00,
2013-03-03 05:38:00,25.0,20.3,29.30,NW,315,0.0,0.0,82,0.00,,,0.00,WUHU21623XXSP,2013-03-03 10:38:00,
2013-03-03 05:43:00,25.0,20.3,29.31,WNW,292,0.0,0.0,82,0.00,,,0.00,WUHU21623XXSP,2013-03-03 10:43:00,
2013-03-03 05:48:00,25.0,20.3,29.30,NNW,337,0.0,0.0,82,0.00,,,0.00,WUHU21623XXSP,2013-03-03 10:48:00,
2013-03-03 05:53:00,25.0,20.3,29.31,NW,315,0.0,0.0,82,0.00,,,0.00,WUHU21623XXSP,2013-03-03 10:53:00,
2013-03-03 05:58:00,25.0,20.3,29.31,NNW,337,2.2,2.2,82,0.00,,,0.00,WUHU21623XXSP,2013-03-03 10:58:00,
2013-03-03 06:03:00,25.0,20.3,29.31,NNW,337,2.2,2.2,82,0.00,,,0.00,WUHU21623XXSP,2013-03-03 11:03:00,
2013-03-03 06:08:00,24.8,20.1,29.31,WNW,292,0.0,2.2,82,0.00,,,0.00,WUHU21623XXSP,2013-03-03 11:08:00,
2013-03-03 06:13:00,24.8,20.1,29.31,WNW,292,0.0,0.0,82,0.00,,,0.00,WUHU21623XXSP,2013-03-03 11:13:00,
2013-03-03 06:18:00,24.6,19.9,29.31,NW,315,0.0,0.0,82,0.00,,,0.00,WUHU21623XXSP,2013-03-03 11:18:00,
2013-03-03 06:23:00,24.6,19.9,29.31,NW,315,0.0,0.0,82,0.00,,,0.00,WUHU21623XXSP,2013-03-03 11:23:00,
2013-03-03 06:28:00,24.6,19.9,29.31,NNW,337,2.7,2.7,82,0.00,,,0.00,WUHU21623XXSP,2013-03-03 11:28:00,
2013-03-03 06:33:00,24.6,19.9,29.31,West,270,0.0,2.7,82,0.00,,,0.00,WUHU21623XXSP,2013-03-03 11:33:00,
2013-03-03 06:38:00,24.6,19.9,29.31,WNW,292,0.0,0.0,82,0.00,,,0.00,WUHU21623XXSP,2013-03-03 11:38:00,
2013-03-03 06:43:00,24.4,19.9,29.31,West,270,0.0,0.0,82,0.00,,,0.00,WUHU21623XXSP,2013-03-03 11:43:00,
2013-03-03 06:48:00,24.4,19.8,29.31,WNW,292,0.0,0.0,82,0.00,,,0.00,WUHU21623XXSP,2013-03-03 11:48:00,
2013-03-03 06:53:00,24.4,19.8,29.31,WNW,292,0.0,0.0,82,0.00,,,0.00,WUHU21623XXSP,2013-03-03 11:53:00,
2013-03-03 06:58:00,24.4,19.8,29.32,NW,315,0.0,0.0,82,0.00,,,0.00,WUHU21623XXSP,2013-03-03 11:58:00,
2013-03-03 07:03:00,24.4,19.8,29.31,North,0,0.0,0.0,82,0.00,,,0.00,WUHU21623XXSP,2013-03-03 12:03:00,
2013-03-03 07:08:00,24.4,19.8,29.32,WNW,292,0.0,0.0,82,0.00,,,0.00,WUHU21623XXSP,2013-03-03 12:08:00,
2013-03-03 07:13:00,24.4,19.8,29.32,NW,315,2.7,2.7,82,0.00,,,0.00,WUHU21623XXSP,2013-03-03 12:13:00,
2013-03-03 07:18:00,24.4,19.8,29.32,NW,315,0.0,2.7,82,0.00,,,0.00,WUHU21623XXSP,2013-03-03 12:18:00,
2013-03-03 07:23:00,24.4,19.5,29.32,North,0,0.0,0.0,81,0.00,,,0.00,WUHU21623XXSP,2013-03-03 12:23:00,
2013-03-03 07:28:00,24.4,19.5,29.31,North,0,2.0,3.1,81,0.00,,,0.00,WUHU21623XXSP,2013-03-03 12:28:00,
2013-03-03 07:33:00,24.4,19.5,29.32,West,270,0.0,3.1,81,0.00,,,0.00,WUHU21623XXSP,2013-03-03 12:33:00,
2013-03-03 07:38:00,24.4,19.5,29.32,NW,315,0.0,0.0,81,0.00,,,0.00,WUHU21623XXSP,2013-03-03 12:38:00,
2013-03-03 07:43:00,24.4,19.5,29.32,NW,315,0.0,0.0,81,0.00,,,0.00,WUHU21623XXSP,2013-03-03 12:43:00,
2013-03-03 07:48:00,24.4,19.5,29.33,NW,315,0.0,0.0,81,0.00,,,0.00,WUHU21623XXSP,2013-03-03 12:48:00,
2013-03-03 07:53:00,24.4,19.7,29.33,West,270,0.0,0.0,81,0.00,,,0.00,WUHU21623XXSP,2013-03-03 12:53:00,
2013-03-03 07:58:00,24.6,19.7,29.32,West,270,0.0,0.0,81,0.00,,,0.00,WUHU21623XXSP,2013-03-03 12:58:00,
2013-03-03 08:03:00,24.6,19.7,29.32,NW,315,0.0,0.0,81,0.00,,,0.00,WUHU21623XXSP,2013-03-03 13:03:00,
2013-03-03 08:08:00,24.6,19.7,29.33,NW,315,1.3,1.3,81,0.00,,,0.00,WUHU21623XXSP,2013-03-03 13:08:00,
2013-03-03 08:13:00,24.6,19.7,29.33,NNE,22,2.2,2.2,81,0.00,,,0.00,WUHU21623XXSP,2013-03-03 13:13:00,
2013-03-03 08:18:00,24.6,19.7,29.33,NNW,337,0.0,2.2,81,0.00,,,0.00,WUHU21623XXSP,2013-03-03 13:18:00,
2013-03-03 08:23:00,25.0,20.0,29.33,NW,315,0.0,0.0,81,0.00,,,0.00,WUHU21623XXSP,2013-03-03 13:23:00,
2013-03-03 08:28:00,25.0,20.0,29.33,NW,315,0.0,0.0,80,0.00,,,0.00,WUHU21623XXSP,2013-03-03 13:28:00,
2013-03-03 08:33:00,25.0,19.7,29.33,WNW,292,0.0,7.8,80,0.00,,,0.00,WUHU21623XXSP,2013-03-03 13:33:00,
2013-03-03 08:38:00,25.2,19.9,29.34,North,0,0.0,7.8,80,0.00,,,0.00,WUHU21623XXSP,2013-03-03 13:38:00,
2013-03-03 08:43:00,25.2,19.9,29.34,NW,315,0.0,0.0,80,0.00,,,0.00,WUHU21623XXSP,2013-03-03 13:43:00,
2013-03-03 08:48:00,25.2,19.9,29.34,NNW,337,0.0,0.0,80,0.00,,,0.00,WUHU21623XXSP,2013-03-03 13:48:00,
2013-03-03 08:53:00,25.3,20.1,29.33,NW,315,0.0,0.9,80,0.00,,,0.00,WUHU21623XXSP,2013-03-03 13:53:00,
2013-03-03 08:58:00,25.2,19.9,29.34,WNW,292,2.0,2.0,80,0.00,,,0.00,WUHU21623XXSP,2013-03-03 13:58:00,
2013-03-03 09:03:00,25.2,19.9,29.34,WNW,292,0.0,2.0,80,0.00,,,0.00,WUHU21623XXSP,2013-03-03 14:03:00,
2013-03-03 09:08:00,25.2,19.9,29.34,NW,315,0.0,0.0,80,0.00,,,0.00,WUHU21623XXSP,2013-03-03 14:08:00,
2013-03-03 09:13:00,25.2,19.9,29.34,WNW,292,0.0,0.0,80,0.00,,,0.00,WUHU21623XXSP,2013-03-03 14:13:00,
2013-03-03 09:18:00,25.3,20.1,29.34,NW,315,0.0,0.0,80,0.00,,,0.00,WUHU21623XXSP,2013-03-03 14:18:00,
2013-03-03 09:23:00,25.5,19.9,29.34,NW,315,0.0,2.0,79,0.00,,,0.00,WUHU21623XXSP,2013-03-03 14:23:00,
2013-03-03 09:28:00,25.5,20.2,29.34,NW,315,0.0,2.0,80,0.00,,,0.00,WUHU21623XXSP,2013-03-03 14:28:00,
2013-03-03 09:34:00,25.9,20.6,29.34,West,270,0.0,3.4,80,0.00,,,0.00,WUHU21623XXSP,2013-03-03 14:34:00,
2013-03-03 09:39:00,25.9,20.2,29.34,NW,315,0.0,3.4,79,0.00,,,0.00,WUHU21623XXSP,2013-03-03 14:39:00,
2013-03-03 09:44:00,25.7,20.1,29.34,NW,315,0.0,2.7,79,0.00,,,0.00,WUHU21623XXSP,2013-03-03 14:44:00,
2013-03-03 09:49:00,25.9,20.2,29.34,NNW,337,2.5,2.5,79,0.00,,,0.00,WUHU21623XXSP,2013-03-03 14:49:00,
2013-03-03 09:54:00,25.9,20.6,29.34,NW,315,3.1,3.8,80,0.00,,,0.00,WUHU21623XXSP,2013-03-03 14:54:00,
2013-03-03 09:59:00,26.1,20.4,29.34,NNW,337,0.0,3.8,79,0.00,,,0.00,WUHU21623XXSP,2013-03-03 14:59:00,
2013-03-03 10:04:00,26.1,20.7,29.34,NW,315,0.0,2.9,80,0.00,,,0.00,WUHU21623XXSP,2013-03-03 15:04:00,
2013-03-03 10:09:00,25.9,20.6,29.34,WNW,292,0.0,0.0,80,0.00,,,0.00,WUHU21623XXSP,2013-03-03 15:09:00,
2013-03-03 10:14:00,26.1,20.7,29.34,WNW,292,0.0,0.0,80,0.00,,,0.00,WUHU21623XXSP,2013-03-03 15:14:00,
2013-03-03 10:19:00,26.1,20.7,29.34,NW,315,0.0,1.6,80,0.00,,,0.00,WUHU21623XXSP,2013-03-03 15:19:00,
2013-03-03 10:24:00,26.1,20.9,29.34,SW,225,2.9,2.9,80,0.00,,,0.00,WUHU21623XXSP,2013-03-03 15:24:00,
2013-03-03 10:29:00,26.2,20.9,29.34,West,270,0.0,2.9,80,0.00,,,0.00,WUHU21623XXSP,2013-03-03 15:29:00,
2013-03-03 10:34:00,26.4,20.9,29.34,NNW,337,2.7,2.7,80,0.00,,,0.00,WUHU21623XXSP,2013-03-03 15:34:00,
2013-03-03 10:39:00,26.6,21.2,29.34,NNW,337,1.6,3.8,80,0.00,,,0.00,WUHU21623XXSP,2013-03-03 15:39:00,
2013-03-03 10:44:00,26.8,21.4,29.34,NW,315,0.0,3.8,80,0.00,,,0.00,WUHU21623XXSP,2013-03-03 15:44:00,
2013-03-03 10:49:00,27.1,21.4,29.34,North,0,0.0,4.7,79,0.00,,,0.00,WUHU21623XXSP,2013-03-03 15:49:00,
2013-03-03 10:54:00,27.3,21.6,29.33,WNW,292,0.0,4.7,79,0.00,,,0.00,WUHU21623XXSP,2013-03-03 15:54:00,
2013-03-03 10:59:00,27.5,21.8,29.33,NNW,337,2.5,2.5,79,0.00,,,0.00,WUHU21623XXSP,2013-03-03 15:59:00,
2013-03-03 11:04:00,27.9,22.2,29.33,North,0,0.0,3.1,79,0.00,,,0.00,WUHU21623XXSP,2013-03-03 16:04:00,
2013-03-03 11:09:00,28.6,22.3,29.33,NNW,337,0.0,6.5,79,0.00,,,0.00,WUHU21623XXSP,2013-03-03 16:09:00,
2013-03-03 11:14:00,28.8,23.0,29.33,NNE,22,3.4,6.5,79,0.00,,,0.00,WUHU21623XXSP,2013-03-03 16:14:00,
2013-03-03 11:19:00,28.8,22.4,29.34,NW,315,3.6,6.7,77,0.00,,,0.00,WUHU21623XXSP,2013-03-03 16:19:00,
2013-03-03 11:24:00,28.6,22.2,29.34,WNW,292,0.0,6.7,77,0.00,,,0.00,WUHU21623XXSP,2013-03-03 16:24:00,
2013-03-03 11:29:00,28.6,22.2,29.34,West,270,0.0,0.0,76,0.00,,,0.00,WUHU21623XXSP,2013-03-03 16:29:00,
2013-03-03 11:34:00,28.6,22.2,29.34,NNW,337,0.7,0.7,77,0.00,,,0.00,WUHU21623XXSP,2013-03-03 16:34:00,
2013-03-03 11:39:00,28.8,22.2,29.33,NNW,337,0.7,0.7,77,0.00,,,0.00,WUHU21623XXSP,2013-03-03 16:39:00,
2013-03-03 11:44:00,28.9,22.4,29.33,NNW,337,0.7,0.7,77,0.00,,,0.00,WUHU21623XXSP,2013-03-03 16:44:00,
2013-03-03 11:49:00,29.3,22.6,29.33,West,270,0.0,0.7,76,0.00,,,0.00,WUHU21623XXSP,2013-03-03 16:49:00,
2013-03-03 11:54:00,29.8,23.0,29.33,WNW,292,2.5,4.3,76,0.00,,,0.00,WUHU21623XXSP,2013-03-03 16:54:00,
2013-03-03 11:59:00,30.2,23.0,29.32,NNW,337,6.3,6.3,75,0.00,,,0.00,WUHU21623XXSP,2013-03-03 16:59:00,
2013-03-03 12:04:00,30.0,22.7,29.33,North,0,4.0,6.3,74,0.00,,,0.00,WUHU21623XXSP,2013-03-03 17:04:00,
2013-03-03 12:09:00,29.7,22.2,29.33,NNW,337,1.6,4.0,74,0.00,,,0.00,WUHU21623XXSP,2013-03-03 17:09:00,
2013-03-03 12:14:00,29.5,22.2,29.33,NW,315,2.9,4.0,74,0.00,,,0.00,WUHU21623XXSP,2013-03-03 17:14:00,
2013-03-03 12:20:00,29.3,22.0,29.32,NW,315,5.8,5.8,74,0.00,,,0.00,WUHU21623XXSP,2013-03-03 17:20:00,
2013-03-03 12:25:00,29.3,21.7,29.32,NNW,337,3.4,5.8,73,0.00,,,0.00,WUHU21623XXSP,2013-03-03 17:25:00,
2013-03-03 12:30:00,29.5,22.2,29.31,NW,315,0.0,3.4,74,0.00,,,0.00,WUHU21623XXSP,2013-03-03 17:30:00,
2013-03-03 12:35:00,30.0,22.7,29.31,West,270,0.0,2.7,74,0.00,,,0.00,WUHU21623XXSP,2013-03-03 17:35:00,
2013-03-03 12:40:00,30.4,22.7,29.31,NNW,337,1.6,3.6,73,0.00,,,0.00,WUHU21623XXSP,2013-03-03 17:40:00,
2013-03-03 12:45:00,31.1,23.1,29.31,WNW,292,5.1,5.8,72,0.00,,,0.00,WUHU21623XXSP,2013-03-03 17:45:00,
2013-03-03 12:50:00,30.9,22.6,29.31,NNW,337,4.9,5.8,71,0.00,,,0.00,WUHU21623XXSP,2013-03-03 17:50:00,
2013-03-03 12:55:00,30.7,22.4,29.31,West,270,0.0,4.9,71,0.00,,,0.00,WUHU21623XXSP,2013-03-03 17:55:00,
2013-03-03 13:00:00,30.4,22.1,29.31,NW,315,0.0,2.5,71,0.00,,,0.00,WUHU21623XXSP,2013-03-03 18:00:00,
2013-03-03 13:05:00,30.6,22.6,29.31,WNW,292,0.0,0.0,72,0.00,,,0.00,WUHU21623XXSP,2013-03-03 18:05:00,
2013-03-03 13:10:00,30.6,22.6,29.31,NNW,337,3.4,3.4,72,0.00,,,0.00,WUHU21623XXSP,2013-03-03 18:10:00,
2013-03-03 13:15:00,30.6,22.6,29.31,NNW,337,2.7,6.0,72,0.00,,,0.00,WUHU21623XXSP,2013-03-03 18:15:00,
2013-03-03 13:20:00,31.3,23.3,29.31,NW,315,0.0,6.0,73,0.00,,,0.00,WUHU21623XXSP,2013-03-03 18:20:00,
2013-03-03 13:25:00,31.8,23.5,29.31,NW,315,2.2,4.7,71,0.00,,,0.00,WUHU21623XXSP,2013-03-03 18:25:00,
2013-03-03 13:30:00,31.8,22.5,29.30,West,270,2.7,4.9,68,0.00,,,0.00,WUHU21623XXSP,2013-03-03 18:30:00,
2013-03-03 13:35:00,31.8,22.5,29.30,West,270,2.0,4.9,68,0.00,,,0.00,WUHU21623XXSP,2013-03-03 18:35:00,
2013-03-03 13:40:00,31.1,21.7,29.30,NW,315,0.0,4.7,68,0.00,,,0.00,WUHU21623XXSP,2013-03-03 18:40:00,
2013-03-03 13:45:00,31.3,22.3,29.30,North,0,2.5,6.3,69,0.00,,,0.00,WUHU21623XXSP,2013-03-03 18:45:00,
2013-03-03 13:50:00,31.8,22.5,29.30,NNW,337,2.5,6.5,68,0.00,,,0.00,WUHU21623XXSP,2013-03-03 18:50:00,
2013-03-03 13:55:00,31.8,21.4,29.30,North,0,2.9,6.5,65,0.00,,,0.00,WUHU21623XXSP,2013-03-03 18:55:00,
2013-03-03 14:00:00,31.3,20.5,29.29,North,0,2.5,4.0,64,0.00,,,0.00,WUHU21623XXSP,2013-03-03 19:00:00,
2013-03-03 14:05:00,31.6,20.8,29.29,NNW,337,3.6,4.0,64,0.00,,,0.00,WUHU21623XXSP,2013-03-03 19:05:00,
2013-03-03 14:10:00,31.8,20.7,29.30,NNW,337,3.4,5.6,63,0.00,,,0.00,WUHU21623XXSP,2013-03-03 19:10:00,
2013-03-03 14:15:00,31.8,20.7,29.29,NW,315,0.0,5.6,63,0.00,,,0.00,WUHU21623XXSP,2013-03-03 19:15:00,
2013-03-03 14:20:00,31.8,21.0,29.29,NNW,337,6.0,6.0,64,0.00,,,0.00,WUHU21623XXSP,2013-03-03 19:20:00,
2013-03-03 14:25:00,31.6,20.8,29.29,NNW,337,6.7,6.7,64,0.00,,,0.00,WUHU21623XXSP,2013-03-03 19:25:00,
2013-03-03 14:30:00,31.3,20.5,29.29,NW,315,1.8,6.7,64,0.00,,,0.00,WUHU21623XXSP,2013-03-03 19:30:00,
2013-03-03 14:35:00,31.3,20.5,29.29,NNW,337,7.4,7.4,64,0.00,,,0.00,WUHU21623XXSP,2013-03-03 19:35:00,
2013-03-03 14:40:00,31.6,21.2,29.29,WNW,292,0.0,7.4,65,0.00,,,0.00,WUHU21623XXSP,2013-03-03 19:40:00,
2013-03-03 14:45:00,31.8,21.0,29.29,North,0,5.1,6.0,64,0.00,,,0.00,WUHU21623XXSP,2013-03-03 19:45:00,
2013-03-03 14:50:00,31.8,21.4,29.29,NNW,337,8.3,8.3,65,0.00,,,0.00,WUHU21623XXSP,2013-03-03 19:50:00,
2013-03-03 14:55:00,32.4,21.5,29.29,WSW,247,3.1,8.3,64,0.00,,,0.00,WUHU21623XXSP,2013-03-03 19:55:00,
2013-03-03 15:00:00,32.9,21.3,29.29,NNW,337,10.3,10.3,62,0.00,,,0.00,WUHU21623XXSP,2013-03-03 20:00:00,
2013-03-03 15:05:00,32.9,21.3,29.29,NNW,337,0.0,10.3,62,0.00,,,0.00,WUHU21623XXSP,2013-03-03 20:05:00,
2013-03-03 15:10:00,32.7,20.8,29.29,NW,315,0.0,10.3,61,0.00,,,0.00,WUHU21623XXSP,2013-03-03 20:10:00,
2013-03-03 15:15:00,32.4,20.4,29.29,NW,315,0.0,5.6,61,0.00,,,0.00,WUHU21623XXSP,2013-03-03 20:15:00,
2013-03-03 15:20:00,32.4,20.8,29.29,NW,315,0.0,0.0,62,0.00,,,0.00,WUHU21623XXSP,2013-03-03 20:20:00,
2013-03-03 15:25:00,32.7,20.8,29.29,WNW,292,1.6,1.6,61,0.00,,,0.00,WUHU21623XXSP,2013-03-03 20:25:00,
2013-03-03 15:30:00,32.5,20.6,29.28,West,270,2.0,2.0,61,0.00,,,0.00,WUHU21623XXSP,2013-03-03 20:30:00,
2013-03-03 15:35:00,32.4,20.4,29.28,WNW,292,0.0,3.6,61,0.00,,,0.00,WUHU21623XXSP,2013-03-03 20:35:00,
2013-03-03 15:40:00,32.2,19.9,29.28,NW,315,0.9,3.6,60,0.00,,,0.00,WUHU21623XXSP,2013-03-03 20:40:00,
2013-03-03 15:45:00,31.8,19.9,29.28,WNW,292,1.3,3.8,61,0.00,,,0.00,WUHU21623XXSP,2013-03-03 20:45:00,
2013-03-03 15:50:00,32.0,20.5,29.28,NW,315,2.2,3.8,62,0.00,,,0.00,WUHU21623XXSP,2013-03-03 20:50:00,
2013-03-03 15:55:00,32.2,21.0,29.28,NW,315,0.0,2.2,63,0.00,,,0.00,WUHU21623XXSP,2013-03-03 20:55:00,
2013-03-03 16:00:00,32.5,21.3,29.28,NNW,337,3.1,3.1,63,0.00,,,0.00,WUHU21623XXSP,2013-03-03 21:00:00,
2013-03-03 16:05:00,32.7,21.5,29.29,NNW,337,1.6,3.1,63,0.00,,,0.00,WUHU21623XXSP,2013-03-03 21:05:00,
2013-03-03 16:10:00,33.1,21.5,29.29,West,270,1.6,1.6,62,0.00,,,0.00,WUHU21623XXSP,2013-03-03 21:10:00,
2013-03-03 16:15:00,32.9,21.3,29.28,NW,315,0.0,1.6,62,0.00,,,0.00,WUHU21623XXSP,2013-03-03 21:15:00,
2013-03-03 16:20:00,33.1,21.5,29.28,West,270,2.2,2.2,62,0.00,,,0.00,WUHU21623XXSP,2013-03-03 21:20:00,
2013-03-03 16:25:00,32.7,21.1,29.29,WNW,292,0.0,2.2,62,0.00,,,0.00,WUHU21623XXSP,2013-03-03 21:25:00,
2013-03-03 16:31:00,32.7,20.8,29.29,West,270,4.3,4.3,61,0.00,,,0.00,WUHU21623XXSP,2013-03-03 21:31:00,
2013-03-03 16:36:00,32.7,20.8,29.29,West,270,4.3,4.3,62,0.00,,,0.00,WUHU21623XXSP,2013-03-03 21:36:00,
2013-03-03 16:40:00,32.7,20.4,29.29,NW,315,2.7,4.3,60,0.00,,,0.00,WUHU21623XXSP,2013-03-03 21:40:00,
2013-03-03 16:46:00,32.7,20.4,29.29,WNW,292,0.0,4.3,60,0.00,,,0.00,WUHU21623XXSP,2013-03-03 21:46:00,
2013-03-03 16:50:00,32.7,20.0,29.29,WNW,292,0.0,0.0,59,0.00,,,0.00,WUHU21623XXSP,2013-03-03 21:50:00,
2013-03-03 16:55:00,32.7,20.0,29.28,West,270,3.8,3.8,59,0.00,,,0.00,WUHU21623XXSP,2013-03-03 21:55:00,
2013-03-03 17:00:00,33.1,20.3,29.29,WSW,247,3.6,11.9,59,0.00,,,0.00,WUHU21623XXSP,2013-03-03 22:00:00,
2013-03-03 17:06:00,33.4,20.3,29.28,West,270,2.9,11.9,59,0.00,,,0.00,WUHU21623XXSP,2013-03-03 22:06:00,
2013-03-03 17:11:00,33.1,20.0,29.28,WNW,292,2.0,2.9,59,0.00,,,0.00,WUHU21623XXSP,2013-03-03 22:11:00,
2013-03-03 17:16:00,32.9,19.7,29.29,West,270,0.0,2.0,58,0.00,,,0.00,WUHU21623XXSP,2013-03-03 22:16:00,
2013-03-03 17:21:00,32.5,19.4,29.28,West,270,1.6,2.5,58,0.00,,,0.00,WUHU21623XXSP,2013-03-03 22:21:00,
2013-03-03 17:26:00,32.7,20.0,29.29,WSW,247,3.8,3.8,59,0.00,,,0.00,WUHU21623XXSP,2013-03-03 22:26:00,
2013-03-03 17:31:00,33.3,20.5,29.29,West,270,0.0,3.8,59,0.00,,,0.00,WUHU21623XXSP,2013-03-03 22:31:00,
2013-03-03 17:36:00,33.6,20.4,29.29,WNW,292,0.0,0.0,58,0.00,,,0.00,WUHU21623XXSP,2013-03-03 22:36:00,
2013-03-03 17:41:00,33.6,20.4,29.29,West,270,7.8,7.8,58,0.00,,,0.00,WUHU21623XXSP,2013-03-03 22:41:00,
2013-03-03 17:46:00,33.1,19.8,29.29,WNW,292,0.0,7.8,57,0.00,,,0.00,WUHU21623XXSP,2013-03-03 22:46:00,
2013-03-03 17:51:00,32.5,19.4,29.29,West,270,4.3,4.3,58,0.00,,,0.00,WUHU21623XXSP,2013-03-03 22:51:00,
2013-03-03 17:56:00,32.4,19.7,29.29,West,270,0.0,4.3,59,0.00,,,0.00,WUHU21623XXSP,2013-03-03 22:56:00,
2013-03-03 18:01:00,32.2,19.7,29.29,West,270,0.0,4.3,59,0.00,,,0.00,WUHU21623XXSP,2013-03-03 23:01:00,
2013-03-03 18:06:00,32.5,20.2,29.29,West,270,0.0,0.0,60,0.00,,,0.00,WUHU21623XXSP,2013-03-03 23:06:00,
2013-03-03 18:11:00,32.7,20.0,29.29,West,270,0.0,1.3,59,0.00,,,0.00,WUHU21623XXSP,2013-03-03 23:11:00,
2013-03-03 18:16:00,33.1,20.1,29.29,West,270,0.0,1.3,59,0.00,,,0.00,WUHU21623XXSP,2013-03-03 23:16:00,
2013-03-03 18:21:00,33.4,20.2,29.29,West,270,0.0,3.8,58,0.00,,,0.00,WUHU21623XXSP,2013-03-03 23:21:00,
2013-03-03 18:26:00,33.4,20.6,29.29,West,270,0.0,3.8,59,0.00,,,0.00,WUHU21623XXSP,2013-03-03 23:26:00,
2013-03-03 18:31:00,33.3,20.0,29.29,West,270,9.4,9.4,58,0.00,,,0.00,WUHU21623XXSP,2013-03-03 23:31:00,
2013-03-03 18:36:00,32.4,19.7,29.29,West,270,1.1,9.4,59,0.00,,,0.00,WUHU21623XXSP,2013-03-03 23:36:00,
2013-03-03 18:41:00,31.8,19.5,29.29,West,270,4.3,9.4,59,0.00,,,0.00,WUHU21623XXSP,2013-03-03 23:41:00,
2013-03-03 18:46:00,31.3,19.4,29.29,West,270,3.1,4.3,60,0.00,,,0.00,WUHU21623XXSP,2013-03-03 23:46:00,
2013-03-03 18:51:00,30.9,19.0,29.30,West,270,0.0,3.8,61,0.00,,,0.00,WUHU21623XXSP,2013-03-03 23:51:00,
2013-03-03 18:56:00,30.7,19.2,29.30,WNW,292,0.0,3.8,62,0.00,,,0.00,WUHU21623XXSP,2013-03-03 23:56:00,
2013-03-03 19:01:00,30.6,19.4,29.30,WNW,292,2.2,2.5,63,0.00,,,0.00,WUHU21623XXSP,2013-03-04 00:01:00,
2013-03-03 19:06:00,30.4,19.2,29.30,West,270,1.3,2.2,63,0.00,,,0.00,WUHU21623XXSP,2013-03-04 00:06:00,
2013-03-03 19:11:00,30.4,19.2,29.30,West,270,0.9,2.2,63,0.00,,,0.00,WUHU21623XXSP,2013-03-04 00:11:00,
2013-03-03 19:16:00,30.0,18.9,29.30,West,270,1.6,1.6,63,0.00,,,0.00,WUHU21623XXSP,2013-03-04 00:16:00,
2013-03-03 19:21:00,30.0,19.2,29.30,WNW,292,0.0,1.6,64,0.00,,,0.00,WUHU21623XXSP,2013-03-04 00:21:00,
2013-03-03 19:27:00,29.8,19.1,29.30,WNW,292,0.0,4.3,64,0.00,,,0.00,WUHU21623XXSP,2013-03-04 00:27:00,
2013-03-03 19:32:00,29.8,19.1,29.30,West,270,0.0,4.3,64,0.00,,,0.00,WUHU21623XXSP,2013-03-04 00:32:00,
2013-03-03 19:37:00,29.7,18.9,29.31,West,270,0.0,0.0,64,0.00,,,0.00,WUHU21623XXSP,2013-03-04 00:37:00,
2013-03-03 19:42:00,29.5,18.8,29.31,West,270,0.0,0.0,64,0.00,,,0.00,WUHU21623XXSP,2013-03-04 00:42:00,
2013-03-03 19:47:00,29.1,18.8,29.31,West,270,0.0,0.0,65,0.00,,,0.00,WUHU21623XXSP,2013-03-04 00:47:00,
2013-03-03 19:52:00,29.1,19.1,29.31,West,270,0.0,0.0,66,0.00,,,0.00,WUHU21623XXSP,2013-03-04 00:52:00,
2013-03-03 19:57:00,28.9,19.0,29.31,West,270,0.0,0.0,66,0.00,,,0.00,WUHU21623XXSP,2013-03-04 00:57:00,
2013-03-03 20:02:00,28.9,19.0,29.31,West,270,0.0,0.0,66,0.00,,,0.00,WUHU21623XXSP,2013-03-04 01:02:00,
2013-03-03 20:07:00,28.8,18.8,29.31,West,270,0.0,0.0,66,0.00,,,0.00,WUHU21623XXSP,2013-03-04 01:07:00,
2013-03-03 20:12:00,28.8,19.2,29.31,West,270,0.0,0.0,67,0.00,,,0.00,WUHU21623XXSP,2013-03-04 01:12:00,
2013-03-03 20:17:00,28.6,19.0,29.31,WNW,292,0.0,0.0,67,0.00,,,0.00,WUHU21623XXSP,2013-03-04 01:17:00,
2013-03-03 20:22:00,28.6,19.0,29.31,WNW,292,0.0,0.0,67,0.00,,,0.00,WUHU21623XXSP,2013-03-04 01:22:00,
2013-03-03 20:27:00,28.6,19.0,29.31,WNW,292,0.0,0.0,67,0.00,,,0.00,WUHU21623XXSP,2013-03-04 01:27:00,
2013-03-03 20:32:00,28.2,18.7,29.31,WNW,292,0.0,0.0,67,0.00,,,0.00,WUHU21623XXSP,2013-03-04 01:32:00,
2013-03-03 20:37:00,28.2,19.0,29.31,NW,315,0.0,0.0,68,0.00,,,0.00,WUHU21623XXSP,2013-03-04 01:37:00,
2013-03-03 20:42:00,28.2,19.0,29.31,NW,315,0.0,0.0,68,0.00,,,0.00,WUHU21623XXSP,2013-03-04 01:42:00,
2013-03-03 20:47:00,28.0,18.9,29.31,WNW,292,0.0,0.0,68,0.00,,,0.00,WUHU21623XXSP,2013-03-04 01:47:00,
2013-03-03 20:52:00,28.0,19.2,29.31,WNW,292,0.0,0.0,69,0.00,,,0.00,WUHU21623XXSP,2013-03-04 01:52:00,
2013-03-03 20:57:00,28.0,19.2,29.31,NW,315,0.0,0.0,69,0.00,,,0.00,WUHU21623XXSP,2013-03-04 01:57:00,
2013-03-03 21:02:00,27.7,19.0,29.31,NW,315,0.0,0.0,69,0.00,,,0.00,WUHU21623XXSP,2013-03-04 02:02:00,
2013-03-03 21:07:00,27.7,18.9,29.31,West,270,0.0,0.0,69,0.00,,,0.00,WUHU21623XXSP,2013-03-04 02:07:00,
2013-03-03 21:12:00,27.7,19.2,29.31,North,0,0.0,0.0,70,0.00,,,0.00,WUHU21623XXSP,2013-03-04 02:12:00,
2013-03-03 21:17:00,27.7,19.2,29.31,NNW,337,0.0,0.0,70,0.00,,,0.00,WUHU21623XXSP,2013-03-04 02:17:00,
2013-03-03 21:22:00,27.5,19.0,29.31,NNW,337,0.0,0.0,70,0.00,,,0.00,WUHU21623XXSP,2013-03-04 02:22:00,
2013-03-03 21:27:00,27.5,19.3,29.31,NNW,337,0.0,0.0,71,0.00,,,0.00,WUHU21623XXSP,2013-03-04 02:27:00,
2013-03-03 21:32:00,27.5,19.3,29.32,NNW,337,0.0,0.0,71,0.00,,,0.00,WUHU21623XXSP,2013-03-04 02:32:00,
2013-03-03 21:37:00,27.5,19.3,29.32,NNW,337,0.0,0.0,71,0.00,,,0.00,WUHU21623XXSP,2013-03-04 02:37:00,
2013-03-03 21:42:00,27.3,19.2,29.31,NNW,337,0.0,0.0,71,0.00,,,0.00,WUHU21623XXSP,2013-03-04 02:42:00,
2013-03-03 21:47:00,27.3,19.2,29.32,NNW,337,0.0,0.0,71,0.00,,,0.00,WUHU21623XXSP,2013-03-04 02:47:00,
2013-03-03 21:52:00,27.1,19.2,29.31,NNW,337,0.0,0.0,71,0.00,,,0.00,WUHU21623XXSP,2013-03-04 02:52:00,
2013-03-03 21:57:00,27.1,19.0,29.31,NNW,337,0.0,0.0,71,0.00,,,0.00,WUHU21623XXSP,2013-03-04 02:57:00,
2013-03-03 22:02:00,27.0,18.8,29.31,NNW,337,0.0,0.0,71,0.00,,,0.00,WUHU21623XXSP,2013-03-04 03:02:00,
2013-03-03 22:07:00,27.0,19.1,29.31,NNW,337,0.0,0.0,72,0.00,,,0.00,WUHU21623XXSP,2013-03-04 03:07:00,
2013-03-03 22:12:00,27.0,19.1,29.31,NNW,337,0.0,0.0,72,0.00,,,0.00,WUHU21623XXSP,2013-03-04 03:12:00,
2013-03-03 22:17:00,26.8,18.9,29.31,NNW,337,0.0,0.0,72,0.00,,,0.00,WUHU21623XXSP,2013-03-04 03:17:00,
2013-03-03 22:22:00,26.8,18.9,29.31,NNW,337,0.0,0.0,72,0.00,,,0.00,WUHU21623XXSP,2013-03-04 03:22:00,
2013-03-03 22:27:00,26.6,18.8,29.32,NNW,337,0.0,0.0,72,0.00,,,0.00,WUHU21623XXSP,2013-03-04 03:27:00,
2013-03-03 22:32:00,26.4,18.6,29.31,NNW,337,0.0,0.0,72,0.00,,,0.00,WUHU21623XXSP,2013-03-04 03:32:00,
2013-03-03 22:37:00,26.4,18.6,29.32,NNW,337,0.0,0.0,72,0.00,,,0.00,WUHU21623XXSP,2013-03-04 03:37:00,
2013-03-03 22:42:00,26.2,18.6,29.32,NNW,337,0.0,0.0,72,0.00,,,0.00,WUHU21623XXSP,2013-03-04 03:42:00,
2013-03-03 22:47:00,26.1,18.2,29.32,NNW,337,0.0,0.0,72,0.00,,,0.00,WUHU21623XXSP,2013-03-04 03:47:00,
2013-03-03 22:52:00,25.9,18.0,29.32,NNW,337,0.0,0.0,72,0.00,,,0.00,WUHU21623XXSP,2013-03-04 03:52:00,
2013-03-03 22:57:00,25.5,17.9,29.32,NNW,337,0.0,0.0,72,0.00,,,0.00,WUHU21623XXSP,2013-03-04 03:57:00,
2013-03-03 23:02:00,25.5,17.7,29.32,NNW,337,0.0,0.0,72,0.00,,,0.00,WUHU21623XXSP,2013-03-04 04:02:00,
2013-03-03 23:07:00,25.5,17.7,29.32,NNW,337,0.0,0.0,72,0.00,,,0.00,WUHU21623XXSP,2013-03-04 04:07:00,
2013-03-03 23:12:00,25.5,17.7,29.31,NNW,337,0.0,0.0,72,0.00,,,0.00,WUHU21623XXSP,2013-03-04 04:12:00,
2013-03-03 23:17:00,25.5,17.7,29.32,NNW,337,0.0,0.0,72,0.00,,,0.00,WUHU21623XXSP,2013-03-04 04:17:00,
2013-03-03 23:22:00,25.5,17.7,29.32,NNW,337,0.0,0.0,72,0.00,,,0.00,WUHU21623XXSP,2013-03-04 04:22:00,
2013-03-03 23:27:00,25.3,17.8,29.32,NNW,337,0.0,0.0,73,0.00,,,0.00,WUHU21623XXSP,2013-03-04 04:27:00,
2013-03-03 23:32:00,25.3,17.8,29.32,NNW,337,0.0,0.0,73,0.00,,,0.00,WUHU21623XXSP,2013-03-04 04:32:00,
2013-03-03 23:37:00,25.2,17.7,29.32,NNW,337,0.0,0.0,73,0.00,,,0.00,WUHU21623XXSP,2013-03-04 04:37:00,
2013-03-03 23:43:00,25.0,17.5,29.32,NNW,337,0.0,0.0,73,0.00,,,0.00,WUHU21623XXSP,2013-03-04 04:43:00,
2013-03-03 23:48:00,25.0,17.5,29.33,NNW,337,0.0,0.0,73,0.00,,,0.00,WUHU21623XXSP,2013-03-04 04:48:00,
2013-03-03 23:53:00,25.0,17.5,29.32,NNW,337,0.0,0.0,73,0.00,,,0.00,WUHU21623XXSP,2013-03-04 04:53:00,
2013-03-03 23:58:00,24.6,17.5,29.33,NNW,337,0.0,0.0,73,0.00,,,0.00,WUHU21623XXSP,2013-03-04 04:58:00,